Location: Clarks Summit,Pa.
(41.5000°N, 75.6000°W)
Time: 22:14:17
(UTC-04:00)

ELECTRON R/B - Visible Passes

Search period start: 21 May 2018 00:00
Search period end: 31 May 2018 00:00
Orbit: 285 x 480 km, 82.9° (Epoch: 21 May)

Date Brightness Start Highest point End Pass type
(mag) Time Alt. Az. Time Alt. Az. Time Alt. Az.
21 May 4.6 21:41:11 10° N 21:43:32 48° E 21:44:08 37° SE visible
22 May 6.6 22:17:59 10° NW 22:19:52 20° W 22:20:41 17° WSW visible
23 May 4.9 21:21:09 10° N 21:23:28 39° E 21:24:56 18° SE visible
24 May 6.5 21:57:38 10° NW 21:59:41 24° W 22:01:25 13° SW visible
25 May 5.2 21:00:51 10° NNE 21:03:07 32° E 21:05:24 10° SSE visible
26 May 6.2 21:37:01 10° NNW 21:39:13 29° W 21:41:28 10° SSW visible
28 May 5.9 21:16:08 10° NNW 21:18:28 37° W 21:20:53 10° SSW visible
